{"data":{"norad_id":51128,"epoch":"2026-05-24T18:41:05.798976Z","epoch_age_seconds":94477,"freshness":"FRESH","line1":"1 51128U 22005AA  26144.77853934  .00001610  00000+0  11923-3 0  9995","line2":"2 51128  53.2128 317.5460 0001227  99.4826 260.6305 15.08840402240219","mean_motion":15.08840402,"eccentricity":0.0001227,"inclination_deg":53.2128,"raan_deg":317.546,"arg_perigee_deg":99.4826,"mean_anomaly_deg":260.6305,"bstar":0.00011923,"rev_number":24021,"period_min":95.43752925036,"perigee_km":538.89333643824,"apogee_km":540.59098398416,"semimajor_km":6917.8791602112,"source":"CELESTRAK","updated_at":"2026-05-25T13:38:16.911368Z"}}